Regional Weather Roundup
Issued by NWS

Home | Current Version | Previous Version | Graphics & Text | Print | Product List | Glossary On
Versions: 1 2 3 4 5 6 7 8 9 10 11 12 13 14 15 16 17 18 19 20 21 22 23 24 25 26 27 28
000
ASUS45 KCYS 301010
RWRWY

WYOMING REGIONAL WEATHER ROUNDUP
NATIONAL WEATHER SERVICE CHEYENNE WY
400 AM MDT SUN APR 30 2017

NOTE:  "FAIR" INDICATES FEW OR NO CLOUDS BELOW 12,000 FEET
WITH NO SIGNIFICANT WEATHER AND/OR OBSTRUCTIONS TO VISIBILITY.

WYZ001-301100-
YELLOWSTONE NATIONAL PARK

CITY           SKY/WX    TMP DP  RH WIND       PRES   REMARKS
LK YELLOWSTONE   N/A     16  15  96 CALM      30.15F
W YELLOWSTONE  NOT AVBL

$$
WYZ002>013-054>058-071-098>099-301100-
NORTHERN WYOMING

CITY           SKY/WX    TMP DP  RH WIND       PRES   REMARKS
JACKSON        FAIR      25  25 100 N5        30.16S WCI  19
CODY           FAIR      28  25  88 CALM      30.07F
GREYBULL       FAIR      34  25  69 E7        30.10S WCI  28
WORLAND        FAIR      32  28  85 SE9       30.10S WCI  24
SHERIDAN       FAIR      24  20  84 CALM      30.05F
BUFFALO        FAIR      34  15  46 CALM      30.06F
GILLETTE       FAIR      26  18  71 S10       30.07F WCI  16
HULETT         FAIR      28  21  74 SW3       30.10S
NEWCASTLE      FAIR      30  25  80 N9        30.10F WCI  22

$$
WYZ014>020-022>026-101>103-301100-
CENTRAL WYOMING

CITY           SKY/WX    TMP DP  RH WIND       PRES   REMARKS
BIG PINEY      FAIR      21  17  84 CALM      30.17S
PINEDALE       PTSUNNY   19  18  93 NW3       30.18S
DUBOIS         FAIR      27  18  69 NW13      30.11F WCI  16
LANDER         FAIR      24  18  77 CALM      30.11F
RIVERTON       FAIR      26  18  71 CALM      30.13S
CASPER         FAIR      25  21  85 W9        30.11F WCI  15
DOUGLAS        FAIR      24  20  84 N6        30.12S WCI  17

$$
WYZ021-027>030-104>119-301100-
SOUTHERN WYOMING

CITY           SKY/WX    TMP DP  RH WIND       PRES   REMARKS
EVANSTON       FAIR      27  20  75 S7        30.18F WCI  19
KEMMERER         N/A     27  23  86 NW7       30.18S WCI  19
FORT BRIDGER   FAIR      32  21  64 W13       30.20F WCI  22
ROCK SPRINGS   FAIR      27  20  75 SW8       30.16S WCI  19
DIXON            N/A     21  18  88 E5        30.20R WCI  14
RAWLINS        FAIR      19  15  84 CALM      30.14S
SARATOGA       FAIR      18  18 100 CALM      30.15S
LARAMIE        FAIR      12   9  87 S8        30.09S WCI   0
CHEYENNE       FAIR      26  15  63 NW14      30.05S WCI  14
TORRINGTON     FAIR      29  23  78 NW9       30.08R WCI  20
PINE BLUFFS    FAIR      27  23  86 NW9       30.05F WCI  17

$$




USA.gov is the U.S. government's official web portal to all federal, state and local government web resources and services.